Location: Bron Breck
(40.6655°N, 111.8083°W)
Time: 00:06:51
(UTC+00:00)

Envisat - Pass Details

Date: 05 March 2021
Orbit: 764 x 766 km, 98.1° (Epoch: 11 April)

Event Time Altitude Azimuth Distance (km) Brightness Sun altitude
Rises 01:38:06 0° 213° (SSW) 3,220 6.8 -3.8°
Reaches altitude 10° 01:41:29 10° 237° (WSW) 2,300 6.6 -4.4°
Maximum altitude 01:44:13 15° 270° (W) 2,006 6.9 -4.9°
Drops below altitude 10° 01:46:57 10° 303° (WNW) 2,309 6.4 -5.5°
Sets 01:50:23 0° 327° (NNW) 3,241 6.7 -6.1°
